Time,TemperatureF,DewpointF,PressureIn,WindDirection,WindDirectionDegrees,WindSpeedMPH,WindSpeedGustMPH,Humidity,HourlyPrecipIn,Conditions,Clouds,dailyrainin,SolarRadiationWatts/m^2,SoftwareType,DateUTC
2013-01-25 00:03:00,38.4,28.0,30.39,NNE,15,2.0,2.0,66,0.00,,,0.00,0,Wunderground v.1.15,2013-01-25 05:03:00,
2013-01-25 00:13:00,38.2,27.8,30.39,ENE,70,2.0,2.0,66,0.00,,,0.00,0,Wunderground v.1.15,2013-01-25 05:13:00,
2013-01-25 00:23:00,38.0,27.3,30.38,North,9,2.0,4.0,65,0.00,,,0.00,0,Wunderground v.1.15,2013-01-25 05:23:00,
2013-01-25 00:33:00,37.8,27.5,30.38,ESE,105,3.0,4.0,66,0.00,,,0.00,0,Wunderground v.1.15,2013-01-25 05:33:00,
2013-01-25 00:43:00,37.6,27.3,30.38,NNE,19,2.0,2.0,66,0.00,,,0.00,0,Wunderground v.1.15,2013-01-25 05:43:00,
2013-01-25 00:53:00,37.3,27.0,30.38,NNE,26,2.0,2.0,66,0.00,,,0.00,0,Wunderground v.1.15,2013-01-25 05:53:00,
2013-01-25 01:03:00,37.1,27.2,30.38,North,4,2.0,2.0,67,0.00,,,0.00,0,Wunderground v.1.15,2013-01-25 06:03:00,
2013-01-25 01:13:00,36.9,26.6,30.38,North,357,2.0,2.0,66,0.00,,,0.00,0,Wunderground v.1.15,2013-01-25 06:13:00,
2013-01-25 01:23:00,36.6,26.3,30.38,NE,53,1.0,2.0,66,0.00,,,0.00,0,Wunderground v.1.15,2013-01-25 06:23:00,
2013-01-25 01:33:00,36.3,26.0,30.38,North,2,2.0,2.0,66,0.00,,,0.00,0,Wunderground v.1.15,2013-01-25 06:33:00,
2013-01-25 01:43:00,36.1,25.8,30.38,North,10,2.0,3.0,66,0.00,,,0.00,0,Wunderground v.1.15,2013-01-25 06:43:00,
2013-01-25 01:53:00,36.0,25.7,30.39,NNE,12,2.0,3.0,66,0.00,,,0.00,0,Wunderground v.1.15,2013-01-25 06:53:00,
2013-01-25 02:03:00,35.9,25.6,30.38,North,358,2.0,2.0,66,0.00,,,0.00,0,Wunderground v.1.15,2013-01-25 07:03:00,
2013-01-25 02:13:00,35.6,25.4,30.38,North,11,1.0,1.0,66,0.00,,,0.00,0,Wunderground v.1.15,2013-01-25 07:13:00,
2013-01-25 02:23:00,35.0,24.8,30.38,North,6,2.0,2.0,66,0.00,,,0.00,0,Wunderground v.1.15,2013-01-25 07:23:00,
2013-01-25 02:33:00,34.5,24.3,30.38,NNE,20,2.0,4.0,66,0.00,,,0.00,0,Wunderground v.1.15,2013-01-25 07:33:00,
2013-01-25 02:43:00,34.3,24.1,30.38,NNE,14,2.0,2.0,66,0.00,,,0.00,0,Wunderground v.1.15,2013-01-25 07:43:00,
2013-01-25 02:53:00,34.0,23.8,30.38,NNE,33,2.0,2.0,66,0.00,,,0.00,0,Wunderground v.1.15,2013-01-25 07:53:00,
2013-01-25 03:03:00,33.9,23.7,30.38,North,3,2.0,6.0,66,0.00,,,0.00,0,Wunderground v.1.15,2013-01-25 08:03:00,
2013-01-25 03:13:00,33.8,23.6,30.38,North,2,2.0,2.0,66,0.00,,,0.00,0,Wunderground v.1.15,2013-01-25 08:13:00,
2013-01-25 03:23:00,33.7,23.5,30.38,NE,36,2.0,2.0,66,0.00,,,0.00,0,Wunderground v.1.15,2013-01-25 08:23:00,
2013-01-25 03:33:00,33.6,23.4,30.38,North,8,1.0,1.0,66,0.00,,,0.00,0,Wunderground v.1.15,2013-01-25 08:33:00,
2013-01-25 03:43:00,33.4,23.3,30.38,North,4,2.0,4.0,66,0.00,,,0.00,0,Wunderground v.1.15,2013-01-25 08:43:00,
2013-01-25 03:53:00,33.3,23.2,30.38,NNE,16,2.0,2.0,66,0.00,,,0.00,0,Wunderground v.1.15,2013-01-25 08:53:00,
2013-01-25 04:03:00,33.2,23.1,30.38,NNE,19,1.0,1.0,66,0.00,,,0.00,0,Wunderground v.1.15,2013-01-25 09:03:00,
2013-01-25 04:13:00,33.0,22.5,30.38,NNE,21,2.0,2.0,65,0.00,,,0.00,0,Wunderground v.1.15,2013-01-25 09:13:00,
2013-01-25 04:23:00,32.9,22.8,30.38,ENE,76,2.0,2.0,66,0.00,,,0.00,0,Wunderground v.1.15,2013-01-25 09:23:00,
2013-01-25 04:33:00,32.8,22.3,30.38,NNE,15,2.0,2.0,65,0.00,,,0.00,0,Wunderground v.1.15,2013-01-25 09:33:00,
2013-01-25 04:43:00,32.8,22.7,30.38,NNW,348,2.0,2.0,66,0.00,,,0.00,0,Wunderground v.1.15,2013-01-25 09:43:00,
2013-01-25 04:53:00,32.8,22.7,30.38,North,7,2.0,2.0,66,0.00,,,0.00,0,Wunderground v.1.15,2013-01-25 09:53:00,
2013-01-25 05:03:00,32.7,22.6,30.37,NNE,20,2.0,6.0,66,0.00,,,0.00,0,Wunderground v.1.15,2013-01-25 10:03:00,
2013-01-25 05:13:00,32.8,23.0,30.37,NNE,27,2.0,2.0,67,0.00,,,0.00,0,Wunderground v.1.15,2013-01-25 10:13:00,
2013-01-25 05:23:00,32.8,23.0,30.36,NNE,13,2.0,3.0,67,0.00,,,0.00,0,Wunderground v.1.15,2013-01-25 10:23:00,
2013-01-25 05:33:00,32.8,23.0,30.36,North,6,1.0,2.0,67,0.00,,,0.00,0,Wunderground v.1.15,2013-01-25 10:33:00,
2013-01-25 05:43:00,32.7,23.3,30.36,NNE,27,2.0,2.0,68,0.00,,,0.00,0,Wunderground v.1.15,2013-01-25 10:43:00,
2013-01-25 05:53:00,32.7,23.3,30.34,NNE,29,2.0,2.0,68,0.00,,,0.00,0,Wunderground v.1.15,2013-01-25 10:53:00,
2013-01-25 06:03:00,32.8,23.7,30.34,NNE,15,2.0,2.0,69,0.00,,,0.00,0,Wunderground v.1.15,2013-01-25 11:03:00,
2013-01-25 06:13:00,32.8,23.7,30.34,North,9,1.0,1.0,69,0.00,,,0.00,0,Wunderground v.1.15,2013-01-25 11:13:00,
2013-01-25 06:23:00,32.7,23.6,30.33,NNE,18,2.0,2.0,69,0.00,,,0.00,0,Wunderground v.1.15,2013-01-25 11:23:00,
2013-01-25 06:34:00,32.7,24.0,30.34,North,354,2.0,2.0,70,0.00,,,0.00,0,Wunderground v.1.15,2013-01-25 11:34:00,
2013-01-25 06:43:00,32.7,24.0,30.34,North,356,2.0,2.0,70,0.00,,,0.00,0,Wunderground v.1.15,2013-01-25 11:43:00,
2013-01-25 06:53:00,32.5,24.1,30.35,NNE,15,1.0,1.0,71,0.00,,,0.00,0,Wunderground v.1.15,2013-01-25 11:53:00,
2013-01-25 07:03:00,32.5,24.1,30.35,NNE,30,2.0,2.0,71,0.00,,,0.00,0,Wunderground v.1.15,2013-01-25 12:03:00,
2013-01-25 07:13:00,32.5,23.8,30.35,North,11,2.0,2.0,70,0.00,,,0.00,5,Wunderground v.1.15,2013-01-25 12:13:00,
2013-01-25 07:23:00,32.5,23.5,30.35,NNE,23,2.0,2.0,69,0.00,,,0.00,5,Wunderground v.1.15,2013-01-25 12:23:00,
2013-01-25 07:33:00,32.5,23.8,30.35,NE,40,2.0,2.0,70,0.00,,,0.00,12,Wunderground v.1.15,2013-01-25 12:33:00,
2013-01-25 07:43:00,32.5,23.8,30.35,NNE,13,2.0,3.0,70,0.00,,,0.00,18,Wunderground v.1.15,2013-01-25 12:43:00,
2013-01-25 07:53:00,32.8,24.1,30.34,NNE,21,2.0,3.0,70,0.00,,,0.00,25,Wunderground v.1.15,2013-01-25 12:53:00,
2013-01-25 08:03:00,33.1,24.7,30.33,NNE,15,2.0,2.0,71,0.00,,,0.00,32,Wunderground v.1.15,2013-01-25 13:03:00,
2013-01-25 08:13:00,33.5,25.4,30.33,NE,47,2.0,2.0,72,0.00,,,0.00,37,Wunderground v.1.15,2013-01-25 13:13:00,
2013-01-25 08:23:00,34.1,26.0,30.33,North,7,1.0,1.0,72,0.00,,,0.00,42,Wunderground v.1.15,2013-01-25 13:23:00,
2013-01-25 08:33:00,35.0,27.2,30.32,North,10,1.0,2.0,73,0.00,,,0.00,49,Wunderground v.1.15,2013-01-25 13:33:00,
2013-01-25 08:43:00,35.7,27.9,30.32,North,3,2.0,2.0,73,0.00,,,0.00,54,Wunderground v.1.15,2013-01-25 13:43:00,
2013-01-25 08:53:00,36.2,28.4,30.32,North,11,2.0,2.0,73,0.00,,,0.00,62,Wunderground v.1.15,2013-01-25 13:53:00,
2013-01-25 09:03:00,37.1,28.9,30.33,ENE,60,2.0,2.0,72,0.00,,,0.00,141,Wunderground v.1.15,2013-01-25 14:03:00,
2013-01-25 09:13:00,37.8,29.6,30.33,NNE,14,2.0,5.0,72,0.00,,,0.00,262,Wunderground v.1.15,2013-01-25 14:13:00,
2013-01-25 09:23:00,38.7,30.1,30.32,NE,36,2.0,2.0,71,0.00,,,0.00,292,Wunderground v.1.15,2013-01-25 14:23:00,
2013-01-25 09:33:00,39.7,31.1,30.33,NE,46,2.0,3.0,71,0.00,,,0.00,320,Wunderground v.1.15,2013-01-25 14:33:00,
2013-01-25 09:43:00,40.7,31.7,30.33,NNE,25,1.0,3.0,70,0.00,,,0.00,343,Wunderground v.1.15,2013-01-25 14:43:00,
2013-01-25 09:53:00,41.4,32.0,30.33,NNE,17,2.0,2.0,69,0.00,,,0.00,364,Wunderground v.1.15,2013-01-25 14:53:00,
2013-01-25 10:03:00,41.9,32.5,30.33,NNE,22,2.0,2.0,69,0.00,,,0.00,396,Wunderground v.1.15,2013-01-25 15:03:00,
2013-01-25 10:13:00,43.0,33.5,30.33,NNE,13,1.0,1.0,69,0.00,,,0.00,413,Wunderground v.1.15,2013-01-25 15:13:00,
2013-01-25 10:23:00,43.6,33.7,30.33,North,6,2.0,2.0,68,0.00,,,0.00,432,Wunderground v.1.15,2013-01-25 15:23:00,
2013-01-25 10:33:00,44.3,34.8,30.32,North,360,2.0,2.0,69,0.00,,,0.00,452,Wunderground v.1.15,2013-01-25 15:33:00,
2013-01-25 10:43:00,45.1,35.5,30.32,NNE,12,2.0,2.0,69,0.00,,,0.00,489,Wunderground v.1.15,2013-01-25 15:43:00,
2013-01-25 10:53:00,46.3,37.4,30.31,NNE,24,1.0,1.0,71,0.00,,,0.00,519,Wunderground v.1.15,2013-01-25 15:53:00,
2013-01-25 11:03:00,47.3,38.0,30.31,NE,40,2.0,3.0,70,0.00,,,0.00,506,Wunderground v.1.15,2013-01-25 16:03:00,
2013-01-25 11:13:00,47.6,38.7,30.31,ENE,69,2.0,2.0,71,0.00,,,0.00,519,Wunderground v.1.15,2013-01-25 16:13:00,
2013-01-25 11:23:00,48.6,40.0,30.29,ENE,60,1.0,2.0,72,0.00,,,0.00,529,Wunderground v.1.15,2013-01-25 16:23:00,
2013-01-25 11:33:00,49.9,41.6,30.27,NE,52,1.0,1.0,73,0.00,,,0.00,547,Wunderground v.1.15,2013-01-25 16:33:00,
2013-01-25 11:43:00,50.5,42.2,30.27,North,10,1.0,1.0,73,0.00,,,0.00,559,Wunderground v.1.15,2013-01-25 16:43:00,
2013-01-25 11:53:00,51.2,43.2,30.27,East,91,2.0,3.0,74,0.00,,,0.00,550,Wunderground v.1.15,2013-01-25 16:53:00,
2013-01-25 12:03:00,51.7,43.7,30.25,NNE,15,2.0,2.0,74,0.00,,,0.00,580,Wunderground v.1.15,2013-01-25 17:03:00,
2013-01-25 12:13:00,52.2,44.9,30.25,NNE,15,2.0,2.0,76,0.00,,,0.00,599,Wunderground v.1.15,2013-01-25 17:13:00,
2013-01-25 12:23:00,52.7,45.3,30.23,North,4,2.0,2.0,76,0.00,,,0.00,304,Wunderground v.1.15,2013-01-25 17:23:00,
2013-01-25 12:33:00,52.5,45.5,30.22,NNE,14,2.0,2.0,77,0.00,,,0.00,283,Wunderground v.1.15,2013-01-25 17:33:00,
2013-01-25 12:43:00,52.4,45.7,30.22,NNE,13,2.0,2.0,78,0.00,,,0.00,557,Wunderground v.1.15,2013-01-25 17:43:00,
2013-01-25 12:53:00,53.1,46.8,30.22,North,4,1.0,1.0,79,0.00,,,0.00,633,Wunderground v.1.15,2013-01-25 17:53:00,
2013-01-25 13:03:00,54.6,47.5,30.20,NNE,15,1.0,1.0,77,0.00,,,0.00,524,Wunderground v.1.15,2013-01-25 18:03:00,
2013-01-25 13:13:00,54.1,47.0,30.20,North,7,2.0,2.0,77,0.00,,,0.00,320,Wunderground v.1.15,2013-01-25 18:13:00,
2013-01-25 13:23:00,53.9,47.5,30.20,NNE,17,2.0,2.0,79,0.00,,,0.00,362,Wunderground v.1.15,2013-01-25 18:23:00,
2013-01-25 13:33:00,55.2,48.1,30.18,SSE,162,1.0,2.0,77,0.00,,,0.00,445,Wunderground v.1.15,2013-01-25 18:33:00,
2013-01-25 13:43:00,54.9,47.5,30.18,North,4,1.0,1.0,76,0.00,,,0.00,258,Wunderground v.1.15,2013-01-25 18:43:00,
2013-01-25 13:53:00,54.2,47.5,30.17,North,9,1.0,1.0,78,0.00,,,0.00,209,Wunderground v.1.15,2013-01-25 18:53:00,
2013-01-25 14:03:00,53.8,47.4,30.17,North,354,1.0,2.0,79,0.00,,,0.00,327,Wunderground v.1.15,2013-01-25 19:03:00,
2013-01-25 14:13:00,53.4,47.4,30.17,North,4,2.0,2.0,80,0.00,,,0.00,246,Wunderground v.1.15,2013-01-25 19:13:00,
2013-01-25 14:23:00,53.4,47.4,30.17,NNE,21,1.0,1.0,80,0.00,,,0.00,220,Wunderground v.1.15,2013-01-25 19:23:00,
2013-01-25 14:33:00,53.7,47.7,30.16,NNE,22,0.0,0.0,80,0.00,,,0.00,207,Wunderground v.1.15,2013-01-25 19:33:00,
2013-01-25 14:43:00,54.4,48.0,30.16,NNE,22,0.0,0.0,79,0.00,,,0.00,163,Wunderground v.1.15,2013-01-25 19:43:00,
2013-01-25 14:53:00,54.5,48.1,30.15,NNE,22,0.0,0.0,79,0.00,,,0.00,162,Wunderground v.1.15,2013-01-25 19:53:00,
2013-01-25 15:03:00,54.4,48.0,30.14,NE,44,0.0,0.0,79,0.00,,,0.00,148,Wunderground v.1.15,2013-01-25 20:03:00,
2013-01-25 15:13:00,54.7,48.3,30.14,NE,47,0.0,0.0,79,0.00,,,0.00,151,Wunderground v.1.15,2013-01-25 20:13:00,
2013-01-25 15:23:00,54.9,48.8,30.15,NE,46,0.0,0.0,80,0.00,,,0.00,183,Wunderground v.1.15,2013-01-25 20:23:00,
2013-01-25 15:33:00,55.3,48.9,30.15,NE,46,0.0,0.0,79,0.00,,,0.00,216,Wunderground v.1.15,2013-01-25 20:33:00,
2013-01-25 15:43:00,55.7,48.6,30.15,NE,46,0.0,0.0,77,0.00,,,0.00,162,Wunderground v.1.15,2013-01-25 20:43:00,
2013-01-25 15:53:00,56.1,49.0,30.15,NE,46,0.0,0.0,77,0.00,,,0.00,183,Wunderground v.1.15,2013-01-25 20:53:00,
2013-01-25 16:03:00,56.2,48.7,30.14,NNE,25,0.0,0.0,76,0.00,,,0.00,190,Wunderground v.1.15,2013-01-25 21:03:00,
2013-01-25 16:13:00,56.0,48.5,30.14,NNE,24,0.0,0.0,76,0.00,,,0.00,91,Wunderground v.1.15,2013-01-25 21:13:00,
2013-01-25 16:23:00,55.8,48.7,30.13,NNE,24,0.0,0.0,77,0.00,,,0.00,72,Wunderground v.1.15,2013-01-25 21:23:00,
2013-01-25 16:33:00,55.9,49.1,30.13,NNE,24,0.0,0.0,78,0.00,,,0.00,62,Wunderground v.1.15,2013-01-25 21:33:00,
2013-01-25 16:43:00,55.8,49.0,30.13,NNE,24,0.0,0.0,78,0.00,,,0.00,54,Wunderground v.1.15,2013-01-25 21:43:00,
2013-01-25 16:53:00,55.5,48.8,30.13,NNE,24,0.0,0.0,78,0.00,,,0.00,32,Wunderground v.1.15,2013-01-25 21:53:00,
2013-01-25 17:03:00,55.1,48.7,30.12,NNE,24,0.0,0.0,79,0.00,,,0.00,19,Wunderground v.1.15,2013-01-25 22:03:00,
2013-01-25 17:13:00,55.0,49.3,30.12,NNE,24,0.0,0.0,81,0.00,,,0.00,16,Wunderground v.1.15,2013-01-25 22:13:00,
2013-01-25 17:23:00,54.6,49.2,30.13,NNE,24,0.0,0.0,82,0.00,,,0.00,12,Wunderground v.1.15,2013-01-25 22:23:00,
2013-01-25 17:33:00,54.1,49.1,30.13,NNE,24,0.0,0.0,83,0.00,,,0.00,5,Wunderground v.1.15,2013-01-25 22:33:00,
2013-01-25 17:43:00,53.7,49.0,30.13,NNE,24,0.0,0.0,84,0.00,,,0.00,0,Wunderground v.1.15,2013-01-25 22:43:00,
2013-01-25 17:53:00,53.3,48.9,30.12,NNE,24,0.0,0.0,85,0.00,,,0.00,0,Wunderground v.1.15,2013-01-25 22:53:00,
2013-01-25 18:03:00,52.8,48.7,30.13,NNE,24,0.0,0.0,86,0.00,,,0.00,0,Wunderground v.1.15,2013-01-25 23:03:00,
2013-01-25 18:13:00,52.5,48.4,30.13,NNE,24,0.0,0.0,86,0.00,,,0.00,0,Wunderground v.1.15,2013-01-25 23:13:00,
2013-01-25 18:23:00,52.0,48.3,30.13,NNE,24,0.0,0.0,87,0.00,,,0.00,0,Wunderground v.1.15,2013-01-25 23:23:00,
2013-01-25 18:33:00,51.6,47.9,30.13,NNE,24,0.0,0.0,87,0.00,,,0.00,0,Wunderground v.1.15,2013-01-25 23:33:00,
2013-01-25 18:43:00,51.4,47.4,30.13,NNE,24,0.0,0.0,86,0.00,,,0.00,0,Wunderground v.1.15,2013-01-25 23:43:00,
2013-01-25 18:53:00,51.1,46.4,30.12,NNE,24,0.0,0.0,84,0.00,,,0.00,0,Wunderground v.1.15,2013-01-25 23:53:00,
2013-01-25 19:03:00,50.9,46.2,30.12,NNE,24,0.0,0.0,84,0.00,,,0.00,0,Wunderground v.1.15,2013-01-26 00:03:00,
2013-01-25 19:13:00,50.7,45.7,30.12,NNE,24,0.0,0.0,83,0.00,,,0.00,0,Wunderground v.1.15,2013-01-26 00:13:00,
2013-01-25 19:23:00,50.3,45.3,30.13,NNE,24,0.0,0.0,83,0.00,,,0.00,0,Wunderground v.1.15,2013-01-26 00:23:00,
2013-01-25 19:33:00,49.8,44.8,30.13,NNE,24,0.0,0.0,83,0.00,,,0.00,0,Wunderground v.1.15,2013-01-26 00:33:00,
2013-01-25 19:43:00,49.6,45.0,30.13,NNE,24,0.0,0.0,84,0.00,,,0.00,0,Wunderground v.1.15,2013-01-26 00:43:00,
2013-01-25 19:53:00,49.3,43.4,30.13,North,349,0.0,0.0,80,0.00,,,0.00,0,Wunderground v.1.15,2013-01-26 00:53:00,
2013-01-25 20:03:00,49.2,42.6,30.13,NNW,348,0.0,0.0,78,0.00,,,0.00,0,Wunderground v.1.15,2013-01-26 01:03:00,
2013-01-25 20:13:00,49.1,42.5,30.13,NNW,348,0.0,0.0,78,0.00,,,0.00,0,Wunderground v.1.15,2013-01-26 01:13:00,
2013-01-25 20:23:00,49.0,42.8,30.12,North,349,0.0,0.0,79,0.00,,,0.00,0,Wunderground v.1.15,2013-01-26 01:23:00,
2013-01-25 20:33:00,48.8,42.2,30.11,NNW,348,0.0,0.0,78,0.00,,,0.00,0,Wunderground v.1.15,2013-01-26 01:33:00,
2013-01-25 20:43:00,48.8,42.6,30.11,North,349,0.0,0.0,79,0.00,,,0.00,0,Wunderground v.1.15,2013-01-26 01:43:00,
2013-01-25 20:53:00,48.7,42.5,30.12,North,349,0.0,0.0,79,0.00,,,0.00,0,Wunderground v.1.15,2013-01-26 01:53:00,
2013-01-25 21:03:00,48.6,42.7,30.11,North,349,0.0,0.0,80,0.00,,,0.00,0,Wunderground v.1.15,2013-01-26 02:03:00,
2013-01-25 21:13:00,48.5,42.6,30.11,North,349,0.0,0.0,80,0.00,,,0.00,0,Wunderground v.1.15,2013-01-26 02:13:00,
2013-01-25 21:23:00,48.4,42.8,30.11,North,349,0.0,0.0,81,0.00,,,0.00,0,Wunderground v.1.15,2013-01-26 02:23:00,
2013-01-25 21:33:00,48.3,42.4,30.12,North,349,0.0,0.0,80,0.00,,,0.00,0,Wunderground v.1.15,2013-01-26 02:33:00,
2013-01-25 21:43:00,48.2,42.3,30.12,North,349,0.0,0.0,80,0.00,,,0.00,0,Wunderground v.1.15,2013-01-26 02:43:00,
2013-01-25 21:53:00,48.1,42.2,30.12,NNW,348,0.0,0.0,80,0.00,,,0.00,0,Wunderground v.1.15,2013-01-26 02:53:00,
2013-01-25 22:03:00,48.0,42.1,30.12,North,349,0.0,0.0,80,0.00,,,0.00,0,Wunderground v.1.15,2013-01-26 03:03:00,
2013-01-25 22:13:00,47.9,41.7,30.12,North,349,0.0,0.0,79,0.00,,,0.00,0,Wunderground v.1.15,2013-01-26 03:13:00,
2013-01-25 22:23:00,47.7,41.8,30.12,North,349,0.0,0.0,80,0.00,,,0.00,0,Wunderground v.1.15,2013-01-26 03:23:00,
2013-01-25 22:33:00,47.6,41.4,30.11,NNW,348,0.0,0.0,79,0.00,,,0.00,0,Wunderground v.1.15,2013-01-26 03:33:00,
2013-01-25 22:43:00,47.5,41.3,30.11,North,349,0.0,0.0,79,0.00,,,0.00,0,Wunderground v.1.15,2013-01-26 03:43:00,
2013-01-25 22:53:00,47.3,41.1,30.11,North,349,0.0,0.0,79,0.00,,,0.00,0,Wunderground v.1.15,2013-01-26 03:53:00,
2013-01-25 23:03:00,47.2,41.0,30.11,North,349,0.0,0.0,79,0.00,,,0.00,0,Wunderground v.1.15,2013-01-26 04:03:00,
2013-01-25 23:13:00,47.2,40.7,30.11,North,349,0.0,0.0,78,0.00,,,0.00,0,Wunderground v.1.15,2013-01-26 04:13:00,
2013-01-25 23:23:00,47.1,40.9,30.11,North,349,0.0,0.0,79,0.00,,,0.00,0,Wunderground v.1.15,2013-01-26 04:23:00,
2013-01-25 23:33:00,47.0,40.8,30.11,North,349,0.0,0.0,79,0.00,,,0.00,0,Wunderground v.1.15,2013-01-26 04:33:00,
2013-01-25 23:43:00,46.9,41.1,30.11,North,349,0.0,0.0,80,0.00,,,0.00,0,Wunderground v.1.15,2013-01-26 04:43:00,
2013-01-25 23:53:00,46.9,41.1,30.10,North,349,0.0,0.0,80,0.00,,,0.00,0,Wunderground v.1.15,2013-01-26 04:53:00,